Weather History for Fort Worth NAS, TX

Change the Weather History Date:

Saturday, October 26, 2013

  Actual Average Record
Temperature  
Mean Temperature 70 °F -  
Max Temperature 81 °F 72 °F 91 °F (2014)
Min Temperature 60 °F 55 °F 41 °F (1997)
Cooling Degree Days 5    
Growing Degree Days 20 (Base 50)    
Moisture  
Dew Point 55 °F    
Average Humidity 66    
Maximum Humidity 81    
Minimum Humidity 48    
Precipitation  
Precipitation 0.96 in - - ()
Sea Level Pressure  
Sea Level Pressure 30.15 in    
Wind  
Wind Speed 9 mph (SSE)    
Max Wind Speed 28 mph    
Max Gust Speed 44 mph    
Visibility 8 miles    
Events Thunderstorm    
Averages and records for this station are not official NWS values.
T = Trace of Precipitation, MM = Missing Value Source: NWS Daily Summary

Daily Weather History Graph

Daily Weather History Graph

Search for Another Location

Airport:

Trip Planner

Search our weather history database for the weather conditions in past years. The results will help you decide how hot, cold, wet, or windy it might be!

Date:

Astronomy

Oct. 26, 2013 Rise Set
Actual Time 7:42 AM CDT 6:44 PM CDT
Civil Twilight 7:17 AM CDT 7:09 PM CDT
Nautical Twilight 6:48 AM CDT 7:38 PM CDT
Astronomical Twilight 6:19 AM CDT 8:06 PM CDT
Moon 12:10 AM CDT (10/26) 1:56 PM CDT (10/26)
Length of Visible Light 11h 51m
Length of Day
11h 01m
Waning Gibbous, 53% of the Moon is Illuminated
Oct 26
Waning Gibbous
Oct 26
Last Quarter
Nov 3
New
Nov 9
First Quarter
Nov 17
Full

Hourly Weather History & Observations

Time (CDT) Temp. Heat Index Dew Point Humidity Pressure Visibility Wind Dir Wind Speed Gust Speed Precip Events Conditions
12:52 AM 61.0 °F - 46.0 °F 58% 30.22 in 10.0 mi SE 5.8 mph - N/A   Clear
1:52 AM 60.1 °F - 46.9 °F 62% 30.21 in 10.0 mi SE 6.9 mph - N/A   Clear
2:52 AM 60.1 °F - 48.0 °F 64% 30.19 in 10.0 mi SE 6.9 mph - N/A   Clear
3:52 AM 60.1 °F - 48.0 °F 64% 30.18 in 10.0 mi ESE 4.6 mph - N/A   Clear
4:52 AM 60.1 °F - 48.9 °F 67% 30.19 in 10.0 mi East 4.6 mph - N/A   Scattered Clouds
5:02 AM 60.8 °F - 48.2 °F 63% 30.24 in 10.0 mi ENE 3.5 mph - N/A   Mostly Cloudy
5:52 AM 62.1 °F - 50.0 °F 65% 30.19 in 10.0 mi ESE 3.5 mph - N/A   Overcast
6:52 AM 63.0 °F - 50.0 °F 63% 30.19 in 10.0 mi SE 5.8 mph - N/A   Overcast
7:52 AM 63.0 °F - 50.0 °F 63% 30.19 in 10.0 mi SE 4.6 mph - N/A   Overcast
7:59 AM 62.6 °F - 51.8 °F 68% 30.24 in 10.0 mi SSE 6.9 mph - N/A   Overcast
8:28 AM 64.4 °F - 51.8 °F 64% 30.24 in 10.0 mi South 10.4 mph - N/A   Overcast
8:52 AM 64.0 °F - 52.0 °F 65% 30.19 in 10.0 mi SSE 8.1 mph - N/A   Overcast
9:52 AM 66.0 °F - 54.0 °F 65% 30.19 in 10.0 mi SSE 11.5 mph - 0.00 in   Overcast
10:52 AM 66.9 °F - 55.0 °F 66% 30.19 in 10.0 mi South 11.5 mph - N/A   Overcast
11:27 AM 69.8 °F - 55.4 °F 60% 30.24 in 10.0 mi South 12.7 mph - N/A   Overcast
11:52 AM 72.0 °F - 57.9 °F 61% 30.17 in 10.0 mi South 17.3 mph - N/A   Overcast
12:26 PM 73.4 °F - 59.0 °F 61% 30.22 in 10.0 mi South 19.6 mph 24.2 mph N/A   Overcast
12:52 PM 75.0 °F - 59.0 °F 57% 30.15 in 10.0 mi SSW 17.3 mph 25.3 mph N/A   Mostly Cloudy
1:27 PM 77.0 °F - 60.8 °F 57% 30.19 in 10.0 mi South 16.1 mph 21.9 mph N/A   Overcast
1:52 PM 75.9 °F - 60.1 °F 58% 30.12 in 10.0 mi South 18.4 mph 21.9 mph N/A   Overcast
2:16 PM 78.8 °F - 60.8 °F 54% 30.15 in 10.0 mi SSW 15.0 mph - N/A   Mostly Cloudy
2:52 PM 79.0 °F - 60.1 °F 52% 30.08 in 10.0 mi SSW 15.0 mph 24.2 mph N/A   Mostly Cloudy
3:52 PM 80.1 °F 80.7 °F 59.0 °F 48% 30.05 in 10.0 mi South 19.6 mph - N/A   Mostly Cloudy
4:52 PM 80.1 °F 80.7 °F 59.0 °F 48% 30.03 in 10.0 mi South 16.1 mph - N/A   Mostly Cloudy
5:52 PM 77.0 °F - 59.0 °F 54% 30.01 in 10.0 mi South 11.5 mph - N/A   Clear
6:52 PM 75.9 °F - 59.0 °F 56% 30.01 in 10.0 mi SSE 12.7 mph - N/A   Clear
7:14 PM 75.2 °F - 59.0 °F 57% 30.06 in 10.0 mi SSE 11.5 mph - N/A Thunderstorm Thunderstorm
7:52 PM 73.9 °F - 59.0 °F 59% 30.00 in 10.0 mi SSE 12.7 mph - N/A Thunderstorm Thunderstorm
8:40 PM 66.2 °F - 57.2 °F 73% 30.15 in 2.0 mi North 25.3 mph 39.1 mph 0.14 in Thunderstorm Unknown
8:43 PM 64.4 °F - 57.2 °F 77% 30.15 in 0.8 mi North 27.6 mph 43.7 mph 0.44 in Thunderstorm Unknown
8:48 PM 62.6 °F - 55.4 °F 77% 30.16 in 0.5 mi NNW 19.6 mph 43.7 mph 0.54 in Thunderstorm Unknown
8:52 PM 64.0 °F - 55.9 °F 75% 30.09 in 1.0 mi North 13.8 mph 26.5 mph 0.57 in Thunderstorm Unknown
8:54 PM 64.4 °F - 57.2 °F 77% 30.13 in 1.8 mi NNE 16.1 mph 26.5 mph N/A Thunderstorm Unknown
8:57 PM 64.4 °F - 55.4 °F 73% 30.13 in 3.0 mi North 15.0 mph 25.3 mph N/A Thunderstorm Unknown
9:06 PM 64.4 °F - 57.2 °F 77% 30.16 in 2.5 mi WSW 9.2 mph - 0.12 in Thunderstorm Unknown
9:11 PM 64.4 °F - 57.2 °F 77% 30.15 in 1.2 mi Calm Calm - 0.20 in Thunderstorm Unknown
9:18 PM 64.4 °F - 57.2 °F 77% 30.14 in 1.2 mi Calm Calm - 0.25 in Thunderstorm Unknown
9:22 PM 64.4 °F - 57.2 °F 77% 30.15 in 2.0 mi WSW 5.8 mph - 0.27 in Thunderstorm Unknown
9:31 PM 64.4 °F - 57.2 °F 77% 30.14 in 4.0 mi ENE 6.9 mph - 0.29 in Thunderstorm Unknown
9:49 PM 64.4 °F - 57.2 °F 77% 30.15 in 8.0 mi East 5.8 mph - 0.32 in Thunderstorm Thunderstorm
9:52 PM 63.0 °F - 57.0 °F 81% 30.10 in 8.0 mi NE 5.8 mph - 0.33 in Thunderstorm Thunderstorm
10:52 PM 63.0 °F - 55.9 °F 78% 30.07 in 10.0 mi Calm Calm - 0.06 in Thunderstorm Thunderstorm
11:34 PM 62.6 °F - 55.4 °F 77% 30.13 in 10.0 mi SE 3.5 mph - N/A   Clear
11:47 PM 62.6 °F - 55.4 °F 77% 30.14 in 9.0 mi SE 5.8 mph - N/A   Scattered Clouds
11:52 PM 63.0 °F - 55.9 °F 78% 30.09 in 8.0 mi ESE 4.6 mph - N/A   Mostly Cloudy